SL-19 DEB, 23495

Orbit data source: Space-Track

SL-19 DEB, 23495 is space debris in LEO originally from a launch on Mon, 26 Dec 1994 UTC launched from the Tyuratam Missile And Space Complex (TTMTR). Debris objects in space refer to the collection of defunct objects orbiting the Earth. Examples of debris include non-operational satellites, rocket bodies, and fragments generated from explosions, collisions, or faulty payload assembly.

Loading next visibility...
Identifier
23495, 1994-085T
Orbit
LEO
Country
Flag of CISCIS
Related business
Manufacturer
Unknown
Mission
Spacecraft
Bus & Motor
Unknown
Mass
Unknown
Launch date (UTC)
1994-12-26 (31 years ago)
Launch vehicle
Unknown
Launch site
Tyuratam Missile And Space Complex (TTMTR)
Object type
Payload
Rocket body
Debris
Shape & HBR
Unknown shape, 0.2 m
Radar Cross Section
Small (<0.1 m²)

Expand to show TLE details & history
Last TLE update: 7 hours ago

TLE from 7 hours ago
0 SL-19 DEB
1 23495U 94085T   26062.62764182 -.00000017  00000-0  69277-3 0  9994
2 23495  65.0220 122.5186 0171235  70.4775  84.2172 11.31088135287859
Epoch: 2026-03-03T15:03Z
TLE epoch observation values (Epoch: 2026-03-03T15:03:48.253Z)
Latitude
21.0777°
Longitude
-95.13123°
Altitude
1,994.353 km
Speed
6.908 km/s
True Right ascension
19h 28m 53s
True Declination
20° 58' 46"
Sunlit
Object was in daylight at epoch
Visualization orbit readout
Latitude
Unknown
Longitude
Unknown
Altitude
Unknown
Speed
Unknown
Apparent Right ascension
Unknown
Apparent Declination
Unknown
Sunlit
N/A
Visualization observer readout
Local Sidereal Time
01:45:20
Azimuth
Unknown
Elevation
Unknown
Doppler factor
Unknown
Orbital elements
Apogee altitude
2,147.265 km
Perigee altitude
1,860.211 km
Semi-major axis
8,381.875 km
Eccentricity
0.01712
Inclination
65.022°
RAAN
122.5186°
Arg. of periapsis
70.4775°
True anomaly
86.17326°
Mean anomaly
84.2172°
Eccentric anomaly
85.19486°
Mean motion
2.82834 °/min
Orbital period
127.28 mins
BSTAR
0.00069277
Loading maneuver chart data...
Computing Atmospheric mass density...
Loading historical data...
Loading historical data...
Loading historical data...
Loading historical data...
Loading historical data...
Loading historical data...
Loading historical data...

Documentation

Showing up to 5 results
|